sat.trackr.live / text

‹ back to catalog

STARLINK-31546

NORAD 59470 · 2024-068R

PAYLOAD ACTIVE UNKNOWN

§ Identity

Operator
Country
US
Launch date
2024-04-10
Launch site
AFETR
Launch vehicle
Mass (kg)
RCS (m²)

Purposes: comms

External: N2YO · Heavens-Above · Gunter

§ Orbital elements

Epoch: 2026-09-21T13:57:45.569088Z

Period
94.27 min
Inclination
43.0023°
Eccentricity
0.0001023
Mean motion
15.27576973 rev/d
Perigee alt
482.4 km
Apogee alt
483.8 km
Semi-major
6,861.2 km
B*
1.8141e-6
RAAN
4.6119°
Arg perigee
271.9157°
Mean anomaly
88.1578°
Rev number
13,852

§ Raw data

STARLINK-315461 59470U 24068R   26264.58177742 -.00000212  00000+0  18141-5 0  99912 59470  43.0023   4.6119 0001023 271.9157  88.1578 15.27576973138526

JSON: /api/v1/satellites/59470 · /tle

For live sub-satellite position, see the globe view (requires WebGL).

§ Visibility from observer

Set your observer location to see the next 7 days of passes ≥ 10°. The values pass through the URL so the page stays shareable.

No JS? Fill the form by hand. The geolocation button needs JavaScript.